N7NKE Weather Reports


Display with metric or nautical units.
time (UTC)temp
F
wind
direction
speed
MPH
gust
MPH
rain 1hr
in
rain 24hr
in
rain mn
in
humidity
%
barometer
mb
20260510174005 63 350 2.0 5.0 0.00 0.00 0.00 61 1019.3
20260510173506 63 319 3.0 5.0 0.00 0.00 0.00 64 1019.3
20260510173008 63 7 3.0 7.0 0.00 0.00 0.00 63 1019.2
20260510172506 63 3 4.0 8.0 0.00 0.00 0.00 65 1019.3
20260510172005 63 335 3.0 6.0 0.00 0.00 0.00 64 1019.4
20260510171505 62 5 2.0 7.0 0.00 0.00 0.00 66 1019.3
20260510171005 61 74 2.0 8.0 0.00 0.00 0.00 65 1019.3
20260510170505 61 346 2.0 6.0 0.00 0.00 0.00 66 1019.1
20260510170005 61 316 3.0 5.0 0.00 0.00 0.00 68 1019.0
20260510165005 60 326 3.0 6.0 0.00 0.00 0.00 67 1019.1
20260510164505 60 337 2.0 6.0 0.00 0.00 0.00 70 1019.0
20260510164005 60 335 4.0 8.0 0.00 0.00 0.00 69 1019.0
20260510163505 60 330 3.0 6.0 0.00 0.00 0.00 68 1019.1
20260510163005 60 333 3.0 6.0 0.00 0.00 0.00 69 1019.0
20260510162005 59 342 2.0 5.0 0.00 0.00 0.00 71 1019.0
20260510161505 59 6 2.0 6.0 0.00 0.00 0.00 72 1019.0
20260510160505 59 327 2.0 5.0 0.00 0.00 0.00 73 1019.1
20260510160005 58 337 2.0 3.0 0.00 0.00 0.00 73 1018.9
20260510155005 58 358 1.0 3.0 0.00 0.00 0.00 76 1018.8
20260510154505 57 326 1.0 5.0 0.00 0.00 0.00 76 1018.7
20260510154005 57 331 2.0 5.0 0.00 0.00 0.00 77 1018.8
20260510153505 56 345 2.0 5.0 0.00 0.00 0.00 77 1018.8
20260510153005 56 15 1.0 3.0 0.00 0.00 0.00 77 1018.6
20260510152504 56 316 1.0 3.0 0.00 0.00 0.00 77 1018.9
20260510152005 56 335 2.0 5.0 0.00 0.00 0.00 77 1018.7
20260510151505 56 329 2.0 5.0 0.00 0.00 0.00 77 1018.4
20260510151005 56 334 3.0 5.0 0.00 0.00 0.00 76 1018.4
20260510150005 55 334 2.0 5.0 0.00 0.00 0.00 78 1018.5
20260510145005 55 336 2.0 5.0 0.00 0.00 0.00 78 1018.4
20260510144505 55 326 2.0 3.0 0.00 0.00 0.00 79 1018.4
20260510144005 54 319 1.0 2.0 0.00 0.00 0.00 79 1018.1
20260510143006 54 338 1.0 2.0 0.00 0.00 0.00 81 1018.1
20260510142505 54 285 1.0 3.0 0.00 0.00 0.00 81 1018.4
20260510142005 53 309 1.0 2.0 0.00 0.00 0.00 82 1018.5
20260510141505 53 307 2.0 3.0 0.00 0.00 0.00 82 1018.1
20260510141005 53 322 2.0 3.0 0.00 0.00 0.00 82 1018.1
20260510135505 53 321 1.0 2.0 0.00 0.00 0.00 83 1018.1
20260510135005 53 314 2.0 3.0 0.00 0.00 0.00 83 1018.0
20260510134505 53 18 1.0 2.0 0.00 0.00 0.00 83 1018.0
20260510134004 53 348 2.0 3.0 0.00 0.00 0.00 84 1017.9
20260510133505 53 343 2.0 5.0 0.00 0.00 0.00 84 1018.0
20260510132505 53 54 0.0 2.0 0.00 0.00 0.00 84 1017.9
20260510132005 53 105 1.0 2.0 0.00 0.00 0.00 84 1017.7
20260510131505 53 69 1.0 3.0 0.00 0.00 0.00 83 1017.5
20260510131005 53 80 2.0 3.0 0.00 0.00 0.00 84 1017.4
20260510130005 53 292 1.0 2.0 0.00 0.00 0.00 83 1017.7
20260510125005 54 350 1.0 2.0 0.00 0.00 0.00 81 1017.4
20260510124005 54 351 1.0 2.0 0.00 0.00 0.00 81 1017.4
20260510123005 54 340 1.0 3.0 0.00 0.00 0.00 82 1017.5
20260510122504 54 346 2.0 3.0 0.00 0.00 0.00 82 1017.4
20260510122005 53 337 3.0 5.0 0.00 0.00 0.00 82 1017.5
20260510121504 53 331 3.0 5.0 0.00 0.00 0.00 83 1017.4
20260510121005 53 332 2.0 3.0 0.00 0.00 0.00 82 1017.4
20260510120505 53 331 2.0 3.0 0.00 0.00 0.00 82 1017.4
20260510115505 54 347 3.0 8.0 0.00 0.00 0.00 82 1017.3
20260510115005 54 333 2.0 6.0 0.00 0.00 0.00 82 1017.5
20260510114504 54 330 3.0 5.0 0.00 0.00 0.00 82 1017.5
20260510113504 54 330 3.0 5.0 0.00 0.00 0.00 82 1017.4
20260510113006 54 330 3.0 5.0 0.00 0.00 0.00 82 1017.5
20260510112505 54 337 2.0 5.0 0.00 0.00 0.00 82 1017.2
20260510112004 54 351 3.0 5.0 0.00 0.00 0.00 82 1017.3
20260510111005 54 329 2.0 3.0 0.00 0.00 0.00 83 1017.3
20260510110505 54 349 2.0 5.0 0.00 0.00 0.00 83 1017.3
20260510105505 55 329 2.0 3.0 0.00 0.00 0.00 83 1017.1
20260510105005 55 344 1.0 3.0 0.00 0.00 0.00 83 1016.9
20260510104505 55 351 3.0 5.0 0.00 0.00 0.00 84 1016.9
20260510104005 55 31 1.0 3.0 0.00 0.00 0.00 84 1017.0
20260510103504 55 71 1.0 2.0 0.00 0.00 0.00 84 1016.9
20260510102505 55 17 1.0 3.0 0.00 0.00 0.00 84 1016.7
20260510102005 55 17 1.0 2.0 0.00 0.00 0.00 84 1016.6
20260510101505 55 29 0.0 1.0 0.00 0.00 0.00 83 1016.5
20260510100504 56 37 1.0 3.0 0.00 0.00 0.00 82 1016.5
20260510100005 56 27 1.0 2.0 0.00 0.00 0.00 82 1016.6
20260510095505 56 336 0.0 2.0 0.00 0.00 0.00 81 1016.5
20260510095005 56 346 2.0 3.0 0.00 0.00 0.00 81 1016.4
20260510094505 57 337 2.0 3.0 0.00 0.00 0.00 81 1016.2
20260510094004 57 36 1.0 2.0 0.00 0.00 0.00 81 1016.2
20260510093505 57 1 1.0 3.0 0.00 0.00 0.00 80 1016.1
20260510093005 57 9 1.0 2.0 0.00 0.00 0.00 79 1015.9
20260510092004 58 118 1.0 3.0 0.00 0.00 0.00 79 1016.2
20260510090005 57 59 1.0 5.0 0.00 0.00 0.00 80 1016.2
20260510085504 57 179 2.0 3.0 0.00 0.00 0.00 79 1016.3
20260510085005 58 183 2.0 3.0 0.00 0.00 0.00 78 1016.3
20260510084504 58 169 1.0 2.0 0.00 0.00 0.00 78 1016.3
20260510083504 59 202 2.0 2.0 0.00 0.00 0.00 76 1016.2
20260510083004 59 209 2.0 3.0 0.00 0.00 0.00 75 1016.1
20260510082504 60 267 0.0 2.0 0.00 0.00 0.00 75 1016.0
20260510081505 60 249 2.0 6.0 0.00 0.00 0.00 74 1015.9
20260510081005 60 312 1.0 2.0 0.00 0.00 0.00 74 1015.9
20260510080505 60 324 2.0 3.0 0.00 0.00 0.00 74 1015.9
20260510080005 60 329 2.0 3.0 0.00 0.00 0.00 74 1015.8
20260510075504 60 331 3.0 5.0 0.00 0.00 0.00 74 1015.9
20260510075005 60 333 3.0 5.0 0.00 0.00 0.00 74 1015.9
20260510074505 60 327 2.0 5.0 0.00 0.00 0.00 74 1015.8
20260510074005 60 331 2.0 3.0 0.00 0.00 0.00 74 1015.8
20260510073505 60 325 2.0 2.0 0.00 0.00 0.00 74 1015.9
20260510073005 60 338 2.0 3.0 0.00 0.00 0.00 73 1015.8
20260510072504 60 352 1.0 2.0 0.00 0.00 0.00 73 1015.8
20260510072005 60 352 1.0 2.0 0.00 0.00 0.00 73 1015.9
20260510071505 61 352 1.0 1.0 0.00 0.00 0.00 72 1015.8
20260510071004 61 352 1.0 1.0 0.00 0.00 0.00 72 1015.8
20260510070505 61 352 1.0 2.0 0.00 0.00 0.00 72 1015.8
20260510065504 62 352 0.0 2.0 0.00 0.00 0.00 69 1015.8
20260510065005 63 352 0.0 2.0 0.00 0.00 0.00 68 1015.8
20260510063505 64 74 0.0 2.0 0.00 0.00 0.00 64 1015.7
20260510063005 65 117 2.0 6.0 0.00 0.00 0.00 62 1015.6
20260510062005 67 140 5.0 6.0 0.00 0.00 0.00 57 1015.5
20260510061505 67 156 1.0 3.0 0.00 0.00 0.00 55 1015.4
20260510061004 67 351 1.0 5.0 0.00 0.00 0.00 56 1015.3
20260510060505 67 349 3.0 6.0 0.00 0.00 0.00 55 1015.2
20260510055504 67 352 3.0 5.0 0.00 0.00 0.00 55 1015.2
20260510053504 66 341 2.0 5.0 0.00 0.00 0.00 57 1015.3
20260510053005 66 331 2.0 5.0 0.00 0.00 0.00 58 1015.3
20260510052504 66 325 1.0 3.0 0.00 0.00 0.00 59 1015.3
20260510052005 65 357 2.0 3.0 0.00 0.00 0.00 59 1015.2
20260510051505 65 325 2.0 2.0 0.00 0.00 0.00 61 1015.3
20260510051005 66 332 1.0 2.0 0.00 0.00 0.00 61 1015.2
20260510050505 66 326 2.0 2.0 0.00 0.00 0.00 62 1015.1
20260510045504 68 27 1.0 2.0 0.00 0.00 0.00 60 1015.2
20260510045005 68 4 1.0 3.0 0.00 0.00 0.00 57 1015.2
20260510044504 68 25 1.0 1.0 0.00 0.00 0.00 55 1015.2
20260510044004 69 26 1.0 3.0 0.00 0.00 0.00 54 1015.2
20260510043505 68 323 2.0 3.0 0.00 0.00 0.00 54 1015.3
20260510042505 69 324 1.0 2.0 0.00 0.00 0.00 55 1015.2
20260510042005 69 325 2.0 3.0 0.00 0.00 0.00 55 1015.1
20260510041505 69 318 3.0 5.0 0.00 0.00 0.00 55 1015.1
20260510040504 69 322 2.0 3.0 0.00 0.00 0.00 53 1015.0
20260510040005 69 324 2.0 3.0 0.00 0.00 0.00 52 1014.9
20260510035505 69 328 2.0 3.0 0.00 0.00 0.00 51 1014.9
20260510035004 69 323 2.0 5.0 0.00 0.00 0.00 51 1014.8
20260510034505 69 325 2.0 3.0 0.00 0.00 0.00 51 1014.7
20260510034004 70 331 3.0 3.0 0.00 0.00 0.00 50 1014.7
20260510033504 70 326 2.0 3.0 0.00 0.00 0.00 49 1014.8
20260510033006 70 322 2.0 5.0 0.00 0.00 0.00 49 1014.7
20260510032505 70 308 3.0 6.0 0.00 0.00 0.00 49 1014.7
20260510031505 70 322 2.0 5.0 0.00 0.00 0.00 49 1014.5
20260510031005 71 329 2.0 3.0 0.00 0.00 0.00 48 1014.6
20260510025505 71 330 3.0 5.0 0.00 0.00 0.00 46 1014.5
20260510025005 71 322 3.0 7.0 0.00 0.00 0.00 45 1014.5
20260510024005 72 329 3.0 5.0 0.00 0.00 0.00 45 1014.4
20260510023504 72 326 3.0 5.0 0.00 0.00 0.00 44 1014.4
20260510023005 73 329 3.0 5.0 0.00 0.00 0.00 44 1014.4
20260510022004 74 332 3.0 5.0 0.00 0.00 0.00 43 1014.4
20260510021505 74 334 4.0 7.0 0.00 0.00 0.00 42 1014.3
20260510021004 74 337 5.0 7.0 0.00 0.00 0.00 42 1014.3
20260510020005 75 336 2.0 3.0 0.00 0.00 0.00 45 1014.4
20260510015505 75 325 2.0 2.0 0.00 0.00 0.00 48 1014.4
20260510014504 76 0 2.0 5.0 0.00 0.00 0.00 48 1014.4
20260510014005 76 335 1.0 2.0 0.00 0.00 0.00 48 1014.5
20260510013005 77 6 1.0 2.0 0.00 0.00 0.00 48 1014.5
20260510012505 78 14 2.0 3.0 0.00 0.00 0.00 45 1014.4
20260510012005 79 60 2.0 7.0 0.00 0.00 0.00 46 1014.4
20260510011505 80 64 3.0 5.0 0.00 0.00 0.00 36 1014.4
20260510011005 80 339 1.0 2.0 0.00 0.00 0.00 27 1014.3
20260510010504 80 321 1.0 2.0 0.00 0.00 0.00 28 1014.4
20260510005504 79 353 1.0 2.0 0.00 0.00 0.00 31 1014.5
20260510004505 79 299 1.0 2.0 0.00 0.00 0.00 29 1014.6
20260510003005 79 269 1.0 1.0 0.00 0.00 0.00 31 1014.7
20260510002504 79 13 1.0 2.0 0.00 0.00 0.00 32 1014.7
20260510001504 79 354 2.0 3.0 0.00 0.00 0.00 28 1014.7
20260510001004 79 5 2.0 2.0 0.00 0.00 0.00 29 1014.8
20260510000505 79 326 2.0 5.0 0.00 0.00 0.00 28 1014.8
20260510000005 79 333 2.0 3.0 0.00 0.00 0.00 32 1014.9
20260509235504 79 10 0.0 2.0 0.00 0.00 0.00 32 1014.9
20260509235004 79 294 1.0 1.0 0.00 0.00 0.00 31 1015.0
20260509234005 79 303 1.0 2.0 0.00 0.00 0.00 30 1015.1
20260509233504 79 6 2.0 3.0 0.00 0.00 0.00 29 1015.1
20260509232504 79 16 2.0 3.0 0.00 0.00 0.00 27 1015.2
20260509232004 79 320 1.0 2.0 0.00 0.00 0.00 29 1015.3
20260509231505 79 329 2.0 3.0 0.00 0.00 0.00 29 1015.4
20260509231004 79 351 1.0 2.0 0.00 0.00 0.00 33 1015.5
20260509230504 78 27 1.0 3.0 0.00 0.00 0.00 35 1015.5
20260509230005 78 94 1.0 3.0 0.00 0.00 0.00 34 1015.7
20260509225505 78 6 1.0 2.0 0.00 0.00 0.00 37 1015.8
20260509225004 77 21 1.0 2.0 0.00 0.00 0.00 36 1015.9
20260509224504 77 346 2.0 3.0 0.00 0.00 0.00 35 1015.9
20260509223504 77 42 1.0 3.0 0.00 0.00 0.00 37 1016.0
20260509223005 77 22 2.0 3.0 0.00 0.00 0.00 36 1016.2
20260509222505 77 20 3.0 5.0 0.00 0.00 0.00 33 1016.3
20260509222004 78 24 2.0 5.0 0.00 0.00 0.00 34 1016.4
20260509221506 77 293 1.0 3.0 0.00 0.00 0.00 34 1016.6
20260509221005 77 3 2.0 5.0 0.00 0.00 0.00 33 1016.6
20260509220504 77 61 1.0 5.0 0.00 0.00 0.00 35 1016.7
20260509220005 77 4 1.0 3.0 0.00 0.00 0.00 32 1016.9
20260509215505 76 4 2.0 3.0 0.00 0.00 0.00 30 1017.0
20260509215005 76 335 2.0 5.0 0.00 0.00 0.00 31 1017.1
20260509214504 76 354 3.0 7.0 0.00 0.00 0.00 36 1017.1
20260509214004 76 37 1.0 3.0 0.00 0.00 0.00 39 1017.1
20260509213505 75 334 2.0 6.0 0.00 0.00 0.00 36 1017.2
20260509213006 75 22 3.0 7.0 0.00 0.00 0.00 36 1017.2
20260509211505 74 349 2.0 6.0 0.00 0.00 0.00 40 1017.3
20260509211004 74 356 2.0 6.0 0.00 0.00 0.00 42 1017.4
20260509210504 74 352 2.0 9.0 0.00 0.00 0.00 39 1017.5
20260509210005 73 83 5.0 7.0 0.00 0.00 0.00 42 1017.6
20260509205504 73 354 2.0 5.0 0.00 0.00 0.00 41 1017.7
20260509205005 73 331 1.0 5.0 0.00 0.00 0.00 44 1017.6
20260509204504 73 332 3.0 5.0 0.00 0.00 0.00 43 1017.7
20260509204004 73 33 1.0 5.0 0.00 0.00 0.00 41 1017.7
20260509203505 72 339 2.0 5.0 0.00 0.00 0.00 43 1017.8
20260509203004 72 359 2.0 6.0 0.00 0.00 0.00 46 1017.8
20260509202504 71 336 2.0 5.0 0.00 0.00 0.00 49 1018.0
20260509202004 71 333 3.0 5.0 0.00 0.00 0.00 50 1018.1
20260509201004 71 16 2.0 5.0 0.00 0.00 0.00 48 1018.2
20260509200504 71 321 2.0 3.0 0.00 0.00 0.00 49 1018.3
20260509200005 71 340 1.0 3.0 0.00 0.00 0.00 50 1018.4
20260509195505 70 310 1.0 5.0 0.00 0.00 0.00 47 1018.4
20260509195004 70 330 2.0 5.0 0.00 0.00 0.00 51 1018.4
20260509194505 70 37 2.0 5.0 0.00 0.00 0.00 49 1018.5
20260509194004 69 343 2.0 7.0 0.00 0.00 0.00 51 1018.7
20260509193504 69 13 4.0 7.0 0.00 0.00 0.00 49 1018.7
20260509192505 68 330 2.0 5.0 0.00 0.00 0.00 56 1018.9
20260509192004 68 0 1.0 6.0 0.00 0.00 0.00 57 1019.0
20260509190504 67 79 2.0 5.0 0.00 0.00 0.00 59 1019.2
20260509190005 67 352 3.0 7.0 0.00 0.00 0.00 61 1019.3
20260509185504 67 275 1.0 6.0 0.00 0.00 0.00 59 1019.3
20260509185004 67 316 2.0 6.0 0.00 0.00 0.00 58 1019.5
20260509184504 67 8 3.0 5.0 0.00 0.00 0.00 58 1019.5
20260509184004 67 276 1.0 5.0 0.00 0.00 0.00 59 1019.5
20260509183005 66 23 1.0 2.0 0.00 0.00 0.00 60 1019.6
20260509182004 66 1 2.0 3.0 0.00 0.00 0.00 62 1019.6
20260509181504 66 68 2.0 5.0 0.00 0.00 0.00 63 1019.7
20260509181004 66 20 1.0 2.0 0.00 0.00 0.00 63 1019.7
20260509180504 65 349 3.0 6.0 0.00 0.00 0.00 64 1019.6
20260509180004 65 320 2.0 3.0 0.00 0.00 0.00 65 1019.7
20260509175504 64 15 2.0 3.0 0.00 0.00 0.00 65 1019.7